Location: Lecco
(45.8566°N, 9.3977°E)
Time: 20:30:16
(UTC+02:00)

Vanguard 1 Rocket - Pass Details

Date: 19 August 2020
Orbit: 655 x 4221 km, 34.3° (Epoch: 30 September)

Event Time Altitude Azimuth Distance (km) Brightness Sun altitude
Exits shadow 04:40:19 17° 210° (SSW) 4,797 10.5 -17.0°
Maximum altitude 04:49:00 30° 165° (SSE) 3,021 9.8 -15.8°
Drops below altitude 10° 04:56:30 10° 108° (ESE) 3,394 10.8 -14.8°
Sets 04:59:10 0° 96° (E) 4,029 11.5 -14.4°
